Change the Weather History Date:

Friday, January 19, 2007

  Actual Average Record
Temperature  
Mean Temperature 46 °F 50 °F  
Max Temperature 55 °F 56 °F 68 °F (1976)
Min Temperature 37 °F 44 °F 35 °F (1980)
Degree Days  
Heating Degree Days 19 15  
Month to date heating degree days 340 285  
Since 1 July heating degree days 1400 1295  
Cooling Degree Days 0 0  
Month to date cooling degree days 0 0  
Year to date cooling degree days 0 0  
Moisture  
Dew Point 39 °F    
Average Humidity 75    
Maximum Humidity 89    
Minimum Humidity 60    
Precipitation  
Precipitation 0.00 in 0.12 in 1.52 in (2010)
Month to date precipitation 0.28 2.63  
Year to date precipitation 0.28 2.63  
Since 1 July precipitation 5.62 10.20  
Snow  
Snow 0.00 in - 0.00 in ()
Month to date snowfall 0.0  
Since 1 July snowfall 0.0  
Snow Depth 0.00 in    
Sea Level Pressure  
Sea Level Pressure 30.14 in    
Wind  
Wind Speed 5 mph (West)    
Max Wind Speed 20 mph    
Max Gust Speed 23 mph    
Visibility 9 miles    
Events      
T = Trace of Precipitation, MM = Missing Value Source: NWS Daily Summary

Daily Weather History Graph

Daily Weather History Graph

Search for Another Location

Airport or City:

Trip Planner

Search our weather history database for the weather conditions in past years. The results will help you decide how hot, cold, wet, or windy it might be!

Date:

Astronomy

Jan. 19, 2007 Rise Set
Actual Time 7:21 AM PST 5:18 PM PST
Civil Twilight 6:53 AM PST 5:47 PM PST
Nautical Twilight 6:21 AM PST 6:19 PM PST
Astronomical Twilight 5:50 AM PST 6:50 PM PST
Moon 8:05 AM PST (1/19) 6:06 PM PST (1/19)
Length of Visible Light 10h 53m
Length of Day
9h 57m
New Moon, 1% of the Moon is Illuminated
Jan 19
New Moon
Jan 25
First Quarter
Feb 1
Full
Feb 10
Last Quarter
Feb 17
New

Hourly Weather History & Observations

Time (PST) Temp. Windchill Dew Point Humidity Pressure Visibility Wind Dir Wind Speed Gust Speed Precip Events Conditions
12:56 AM 45.0 °F - 34.0 °F 65% 30.20 in 10.0 mi Calm Calm - N/A   Clear
1:56 AM 39.9 °F 37.8 °F 30.0 °F 68% 30.20 in 10.0 mi West 3.5 mph - N/A   Clear
2:56 AM 41.0 °F - 28.9 °F 62% 30.19 in 10.0 mi Calm Calm - N/A   Clear
3:56 AM 37.0 °F 34.5 °F 28.9 °F 73% 30.19 in 10.0 mi West 3.5 mph - N/A   Clear
4:56 AM 37.0 °F 33.3 °F 30.0 °F 76% 30.18 in 10.0 mi West 4.6 mph - N/A   Clear
5:56 AM 39.0 °F - 30.0 °F 70% 30.17 in 10.0 mi Calm Calm - N/A   Clear
6:56 AM 39.0 °F 34.8 °F 30.0 °F 70% 30.19 in 10.0 mi SSW 5.8 mph - N/A   Clear
7:15 AM 39.2 °F 35.9 °F 32.0 °F 75% 30.19 in 10.0 mi West 4.6 mph - N/A   Partly Cloudy
7:56 AM 44.1 °F 40.8 °F 41.0 °F 89% 30.19 in 8.0 mi NW 5.8 mph - N/A   Scattered Clouds
8:56 AM 45.0 °F - 37.0 °F 74% 30.19 in 10.0 mi Calm Calm - N/A   Scattered Clouds
9:56 AM 46.9 °F - 39.0 °F 74% 30.19 in 10.0 mi Calm Calm - N/A   Scattered Clouds
10:56 AM 48.0 °F - 41.0 °F 77% 30.19 in 9.0 mi East 6.9 mph - N/A   Scattered Clouds
11:56 AM 50.0 °F - 44.1 °F 80% 30.16 in 7.0 mi East 5.8 mph - N/A   Mostly Cloudy
12:56 PM 50.0 °F - 44.1 °F 80% 30.12 in 6.0 mi East 5.8 mph - N/A   Haze
1:56 PM 51.1 °F - 44.1 °F 77% 30.10 in 7.0 mi Calm Calm - N/A   Mostly Cloudy
2:56 PM 55.0 °F - 46.0 °F 72% 30.08 in 8.0 mi WNW 11.5 mph - N/A   Mostly Cloudy
3:56 PM 52.0 °F - 45.0 °F 77% 30.08 in 7.0 mi West 16.1 mph - N/A   Overcast
4:56 PM 51.1 °F - 44.1 °F 77% 30.07 in 9.0 mi West 17.3 mph - N/A   Mostly Cloudy
5:56 PM 50.0 °F - 45.0 °F 83% 30.07 in 9.0 mi West 15.0 mph - N/A   Scattered Clouds
6:56 PM 50.0 °F - 45.0 °F 83% 30.08 in 9.0 mi WNW 13.8 mph - N/A   Scattered Clouds
7:56 PM 48.0 °F - 44.1 °F 86% 30.08 in 8.0 mi Calm Calm - N/A   Partly Cloudy
8:56 PM 48.0 °F - 43.0 °F 83% 30.08 in 9.0 mi WSW 3.5 mph - N/A   Clear
9:56 PM 46.9 °F - 42.1 °F 83% 30.09 in 9.0 mi WNW 6.9 mph - N/A   Clear
10:56 PM 48.9 °F - 45.0 °F 86% 30.11 in 8.0 mi WNW 3.5 mph - N/A   Clear
11:56 PM 43.0 °F - 39.9 °F 89% 30.11 in 9.0 mi Calm Calm - N/A   Clear